Location: Casilda
(33.0440°S, 61.1680°W)
Time: 14:32:07
(UTC-03:00)

ISS - Pass Details

Date: 20 June 2017
Orbit: 401 x 408 km, 51.6° (Epoch: 28 June)

Event Time Altitude Azimuth Distance (km) Brightness Sun altitude
Exits shadow 05:54:56 22° 101° (E) 954 -1.3 -26.9°
Drops below altitude 10° 05:56:33 10° 79° (ENE) 1,465 0.0 -26.6°
Sets 05:58:46 0° 67° (ENE) 2,319 1.3 -26.1°
